Volver al catálogo

STARLINK-35971

ActivoComunicacionesVLEO
NORAD 66895·PAYLOAD·🇺🇸 United States

Lanzado Dec 4, 2025 desde Vandenberg Space Force Base

Loading…

Próximos Pases (próximas 24 horas)

TLE

ActualizadoSource: CelesTrak SupGP

Época: Sep 15, 2026, 03:49 UTC

1 66895C 25283T   26258.15951389 -.00059861  00000+0 -17686-2 0  2586
2 66895  53.1585 220.5113 0001445  85.6661 268.2604 15.34420247    14

Sigue STARLINK-35971 en tiempo real con AllMySat

Download on the App Store